Location: Battery Park City
(40.7115°N, 74.0163°W)
Time: 07:39:43
(UTC+00:00)

Daily predictions for brighter satellites

Satellite Brightness Start Highest point End
(mag) Time Altitude Azimuth Time Altitude Azimuth Time Altitude Azimuth
Cosmos 1634 Rocket 4.3 21:46:19 10° N 21:52:29 74° W 21:58:38 10° S
Radarsat Rocket 4.1 21:46:20 10° SSE 21:52:41 89° E 21:58:35 10° NNW
ATLAS 2AS CENTAUR R/B 4.0 21:47:48 10° WSW 21:55:20 45° NW 22:02:57 10° NNE
SL-8 R/B 4.0 21:52:10 10° WNW 21:56:59 75° SSW 22:01:47 10° SE
Feng Yun 1-1 Rocket 4.4 21:52:10 10° SE 21:57:19 48° ENE 22:02:30 10° N
Cosmos 2251 Rocket 4.0 21:52:31 10° S 21:57:32 44° ESE 22:02:32 10° NNE
Cosmos 1980 4.3 21:53:32 10° S 21:58:41 39° ESE 22:03:54 10° NE
Lacrosse 5 rocket 1.4 21:54:26 10° SW 21:58:49 90° SE 22:02:58 10° NE
PSLV R/B 3.9 21:58:39 10° NNE 22:02:50 81° ESE 22:06:56 10° S
Nadezhda 4 Rocket 4.4 21:57:49 10° SSE 22:03:46 45° E 22:09:43 10° NNE
IRS-1C Rocket 4.1 21:59:41 10° SSE 22:04:52 61° ENE 22:10:04 10° N
ISS -2.6 22:03:56 10° NW 22:06:50 26° NNE 22:09:45 10° E
SL-4 R/B 3.1 22:04:39 10° W 22:08:00 32° NNW 22:11:36 10° NE
Cosmos 1733 Rocket 3.2 22:07:13 10° N 22:11:32 54° E 22:15:50 10° SSE
STARLINK-60 4.1 22:09:16 10° SSW 22:12:19 32° SE 22:15:02 12° ENE
COSMOS 2428 3.1 22:08:26 10° SW 22:14:02 65° WNW 22:19:44 10° NNE
Envisat 3.5 22:12:24 10° SE 22:17:01 37° ENE 22:21:39 10° N
CZ-4B R/B 4.4 22:17:41 10° NW 22:19:18 13° WNW 22:20:54 10° W
Meteor 1-5 Rocket 4.1 22:15:48 10° N 22:21:22 78° E 22:26:43 10° SSE
Cosmos 1666 3.8 22:18:46 10° NNE 22:21:45 22° ENE 22:24:42 10° SE
Aureole 1 Rocket 3.6 22:21:10 10° SSE 22:23:23 19° ESE 22:24:25 16° ENE
CENTAUR R/B 4.3 22:18:59 10° NW 22:26:51 49° WSW 22:35:06 10° S
USA 215 4.3 22:22:21 10° NE 22:28:10 36° NNW 22:33:59 10° W
Exosat Rocket 3.7 22:28:00 10° SSW 22:33:36 81° WNW 22:38:36 10° NNE
Cosmos 1992 Rocket 4.0 22:28:53 10° NNW 22:34:03 57° ENE 22:39:10 10° SSE
SMAP 3.3 22:32:21 10° S 22:36:59 73° WSW 22:41:39 10° NNW
SKYMED 2 4.0 22:33:50 10° NNE 22:37:56 39° E 22:41:59 10° SSE
Cosmos 921 Rocket 4.5 22:38:21 10° NNE 22:40:26 18° NE 22:40:26 18° NE
BREEZE-M R/B 4.3 22:37:27 10° WNW 22:41:58 24° NNW 22:43:49 17° NNE
COBE Rocket 4.1 22:37:39 10° N 22:42:16 67° WNW 22:46:54 10° SSW
Okean O Rocket 4.5 22:39:47 10° SW 22:42:59 20° W 22:46:12 10° NW
Cosmos 1862 Rocket 4.0 22:41:48 10° SSW 22:46:05 63° W 22:50:26 10° N
Cosmos 2278 Rocket 2.2 22:42:42 10° NNW 22:48:24 87° ENE 22:54:04 10° SSE
Cosmos 1703 Rocket 3.8 22:44:35 10° SSE 22:48:50 46° E 22:52:45 12° NNE
Cosmos 2242 Rocket 3.6 22:44:39 10° S 22:49:12 85° E 22:53:48 10° N
Cosmos 1812 3.8 22:46:54 10° SSW 22:50:37 47° W 22:54:22 10° N
FALCON 9 DEB 3.3 22:47:58 10° SW 22:51:25 59° SE 22:52:40 34° ENE
Shenzhou-11 Module 1.9 22:52:29 10° WNW 22:55:11 52° N 22:55:26 49° NNE
Okean-O 2.7 22:53:11 10° S 22:57:36 79° WSW 23:02:03 10° NNW
NOSS 0 Rocket 4.4 22:53:03 10° SW 22:59:09 60° WNW 23:05:21 10° NNE
SL-16 R/B 2.6 22:54:45 10° S 23:00:05 43° ESE 23:02:49 26° NE
USA 267 3.9 22:54:46 10° SSE 23:01:11 58° SW 23:07:37 10° NW
Cosmos 2195 Rocket 4.4 22:56:35 10° S 23:02:42 70° E 23:08:57 10° NNE
Cosmos 292 Rocket 3.7 23:00:21 10° NNW 23:05:10 60° ENE 23:09:57 10° SSE
Cosmos 2333 Rocket 4.1 23:01:18 10° WSW 23:06:01 26° NW 23:10:47 10° N
Cosmos 1092 Rocket 4.0 23:03:10 10° S 23:09:30 87° W 23:15:49 10° N
OAO 3 Rocket 4.0 23:05:13 10° WSW 23:09:37 39° S 23:11:34 27° SE
STARLINK-52 3.0 23:08:17 10° SW 23:11:46 72° SE 23:12:07 65° E
Cosmos 2237 Rocket 2.8 23:06:21 10° SW 23:11:56 56° WNW 23:17:21 11° NNE
YAOGAN 6 2.5 23:10:33 10° S 23:14:04 82° WSW 23:17:39 10° NNW
Cosmos 1190 Rocket 4.2 23:12:31 10° S 23:17:29 48° ESE 23:18:35 41° ENE
STARLINK-29 3.0 23:16:26 10° SW 23:19:58 83° NW 23:20:06 80° N
Cosmos 1908 Rocket 4.0 23:19:30 10° NNW 23:23:51 61° W 23:28:08 10° S
Cosmos 1536 4.4 23:21:29 10° NNW 23:25:10 36° W 23:28:49 10° SSW
COSMO-SKYMED 1 3.1 23:22:03 12° N 23:25:56 58° WNW 23:30:11 10° SSW
Cosmos 1441 Rocket 3.0 23:23:23 10° N 23:27:14 90° W 23:31:00 10° S
YAOGAN 1 2.4 23:27:08 10° SSE 23:31:27 88° E 23:35:49 10° NNW
USA 116 4.4 23:27:53 15° N 23:32:22 85° WNW 23:37:27 10° SSW
CZ-4 R/B 1.6 23:28:38 10° S 23:32:33 65° WSW 23:36:25 10° NNW
OAO 2 Rocket 4.0 23:31:23 10° WSW 23:36:09 44° S 23:37:08 40° SSE
Lacrosse 5 rocket 3.4 23:35:33 10° WNW 23:38:27 18° NNW 23:39:14 17° NNW
ISS -2.2 23:40:28 10° WNW 23:42:52 36° W 23:42:52 36° W
Okean 1-7 3.9 23:40:18 10° SSW 23:44:28 48° W 23:46:52 23° NNW
Meteor 1-18 Rocket 4.2 23:39:30 10° S 23:45:17 88° WNW 23:48:09 31° N
Okean 1 3.7 23:41:35 10° SSW 23:45:07 61° WSW 23:45:07 61° WSW
Cosmos 1943 Rocket 4.1 23:42:44 10° N 23:44:03 16° N 23:44:03 16° N
SL-4 R/B 4.2 23:45:53 10° NW 23:47:31 16° NNW 23:47:31 16° NNW
CSL-04 Rocket 3.8 23:43:25 10° S 23:48:40 70° WSW 23:53:57 10° NNW
Cosmos 2297 3.5 23:44:32 10° NNW 23:50:16 86° ENE 23:51:40 53° SSE
Cosmos 1174 4.4 23:46:29 10° SW 23:51:45 64° WNW 23:51:58 63° NW
